Regional Weather Roundup
Issued by NWS Jackson, KY

Home | Current Version | Previous Version | Text Only | Print | Product List | Glossary On
Versions: 1 2 3 4 5 6 7 8 9 10 11 12 13 14 15 16 17 18 19 20 21 22 23 24 25 26 27 28 29 30 31 32 33 34 35 36 37 38 39 40 41 42 43 44 45 46 47 48 49 50
000
ASUS43 KJKL 260210
RWRJKL

EAST KENTUCKY HOURLY WEATHER ROUNDUP
NATIONAL WEATHER SERVICE JACKSON KY
1000 PM EDT WED APR 25 2018

NOTE: "FAIR" INDICATES FEW OR NO CLOUDS BELOW 12,000 FEET WITH
NO SIGNIFICANT WEATHER AND/OR OBSTRUCTIONS TO VISIBILITY.

* THESE REPORTS ARE NOT UNDER NWS QUALITY CONTROL AND MAY NOT
  REPORT WEATHER SUCH AS PRECIPITATION AND FOG.

KYZ079-080-083-085-087-088-110-112-115-119-120-260300
...EASTERN KENTUCKY...

CITY           SKY/WX    TMP DP  RH WIND       PRES   REMARKS
JACKSON          N/A     52  50  93 CALM      29.95R
LONDON           N/A     51  51 100 CALM      29.96R FOG
SOMERSET*        N/A     54  50  87 CALM      29.97R
WILLIAMSBURG*    N/A     52  52 100 CALM      29.96S
MIDDLESBORO*     N/A     51  51 100 CALM      29.97R
HARLAN APT*    MOCLDY    52  52  99 CALM      29.96S
PIKE CO APT*   CLOUDY    53  53 100 CALM      29.94S
BIG SANDY APT*   N/A     53  53 100 CALM      29.94S
MOREHEAD APT*  CLOUDY    55  46  71 CALM      29.95S
ASHLAND*         N/A     49  48  97 CALM      29.93R
$$

KYZ035-036-041-042-044-050-067-078-099-260300
...CENTRAL KENTUCKY...

CITY           SKY/WX    TMP DP  RH WIND       PRES   REMARKS
MT STERLING*     N/A     50  48  93 CALM      29.96R
FLEMING/MASON* MOCLDY    56  47  71 CALM      29.95R
DANVILLE*        N/A     54  50  87 CALM      29.96R
LEXINGTON        N/A     57  48  72 CALM      29.94R
FRANKFORT        N/A     56  47  71 NW3       29.93R
LOUISVILLE     CLOUDY    62  46  55 N8        29.93R
LEBANON*         N/A     57  46  67 CALM      29.94S
GLASGOW*       CLOUDY    58  52  81 CALM      29.94S
BOWLING GREEN    N/A     64  51  62 SW3       29.94S
$$

KYZ091>093-OHZ055-061-077-WVZ005-015-034-035-042-260300
...SOUTHERN OHIO/WEST VIRGINIA...

CITY           SKY/WX    TMP DP  RH WIND       PRES   REMARKS
COVINGTON      CLOUDY    55  43  63 NW5       29.93R
COLUMBUS       MOCLDY    51  43  74 SE3       29.91R
DAYTON           N/A     53  38  56 NW10      29.94R
WILMINGTON       N/A     51  48  89 E3        29.93R
HUNTINGTON       N/A     52  49  89 SW3       29.92S
CHARLESTON     MOCLDY    54  52  93 CALM      29.92R
PINEVILLE*     CLOUDY    54  51  92 MISG      29.97R
BECKLEY        CLOUDY    50  49  96 NW7       29.91R
BLUEFIELD      CLOUDY    49  47  93 NW7       29.92R
LOGAN CO APT*  CLOUDY    52  52 100 CALM      29.92S
$$

VAZ002-007-008-TNZ017-027-036-066-071-260300
...SOUTHWEST VIRGINIA/EAST TENNESSEE...

CITY           SKY/WX    TMP DP  RH WIND       PRES   REMARKS
WISE*          CLOUDY    50  50 100 CALM      29.96S
JONESVILLE*    CLOUDY    55  52  88 CALM      29.97F
ABINGDON*      CLOUDY    55  52  87 N7        29.93S
BRISTOL        CLOUDY    57  51  80 NW7       29.93S
MORRISTOWN*    CLOUDY    55  52  88 CALM      29.94S
SEVIERVILLE*   CLOUDY    57  54  88 CALM      29.95S
KNOXVILLE      CLOUDY    57  52  83 CALM      29.94F
LAFOLLETTE*    CLEAR     54  50  87 CALM      29.99S
OAK RIDGE        N/A     56  52  86 CALM      29.96S
CROSSVILLE       N/A     52  46  80 CALM      29.97R
NASHVILLE      CLOUDY    65  50  58 CALM      29.94F
$$

...KEY TO REMARKS...
VSB - VISIBILITY IN MILES
WCI - WIND CHILL INDEX
HX  - HEAT INDEX

$$



USA.gov is the U.S. government's official web portal to all federal, state and local government web resources and services.